Hourly Data Report for July 04, 2015

All times are specified in Local Standard Time (LST). Add 1 hour to adjust for Daylight Saving Time where and when it is observed.

Metadata including Station Name, Province, Latitude, Longitude, Elevation, Climate ID, WMO ID, TC ID
PUVIRNITUQ A
QUEBEC
Latitude: 60°03'08.000" N Longitude: 77°17'15.000" W Elevation: 25.30 m
Climate ID: 7106223 WMO ID: TC ID: YPX
Hourly Data Report for July 4, 2015
Temp Definition
°C

Dew Point Temp Definition
°C

Rel Hum Definition
%

Wind Dir Definition
10's deg
Wind Spd Definition
km/h

Visibility Definition
km

Stn Press Definition
kPa

Hmdx Definition

Wind Chill Definition

Weather Definition

00:00 Legend Double Dagger 4.3 3.3 93 30 17 16.1 100.80 LegendNANA
01:00 Legend Double Dagger 3.4 2.7 95 30 13 16.1 100.83 LegendNANA
02:00 Legend Double Dagger 2.6 2.2 97 29 11 16.1 100.81 LegendNANA
03:00 Legend Double Dagger 1.9 1.5 97 29 15 16.1 100.82 LegendNANA
04:00 Legend Double Dagger 2.1 1.7 97 30 15 16.1 100.86 LegendNANA
05:00 Legend Double Dagger 2.6 2.0 96 29 9 16.1 100.92 LegendNANA
06:00 Legend Double Dagger 4.0 2.8 92 LegendMM 4 16.1 100.93 LegendNANA
07:00 Legend Double Dagger 5.3 3.2 86 21 8 16.1 100.97 LegendNANA
08:00 Legend Double Dagger 6.1 3.3 82 18 11 16.1 100.99 LegendNANA
09:00 Legend Double Dagger 7.1 3.6 79 21 11 16.1 100.97 LegendNANA
10:00 Legend Double Dagger 7.1 3.4 77 22 17 16.1 100.98 LegendNANA
11:00 Legend Double Dagger 6.9 3.3 78 23 17 16.1 101.00 LegendNANA
12:00 Legend Double Dagger 7.1 3.4 77 22 15 16.1 101.02 LegendNANA
13:00 Legend Double Dagger 8.8 4.0 72 25 17 16.1 101.03 LegendNANA
14:00 Legend Double Dagger 8.9 3.8 70 25 15 16.1 101.02 LegendNANA
15:00 Legend Double Dagger 9.4 4.4 71 24 17 16.1 101.02 LegendNANA
16:00 Legend Double Dagger 9.0 4.2 72 24 17 16.1 101.04 LegendNANA
17:00 Legend Double Dagger 7.9 3.7 75 24 18 16.1 101.06 LegendNANA
18:00 Legend Double Dagger 7.3 3.6 77 24 15 16.1 101.09 LegendNANA
19:00 Legend Double Dagger 6.3 3.2 80 23 13 16.1 101.10 LegendNANA
20:00 Legend Double Dagger 6.2 3.3 82 26 9 16.1 101.12 LegendNANA
21:00 Legend Double Dagger 4.7 3.1 89 28 5 16.1 101.11 LegendNANA
22:00 Legend Double Dagger 3.9 2.6 91 23 5 16.1 101.12 LegendNANA
23:00 Legend Double Dagger 3.1 1.9 92 26 4 16.1 101.16 LegendNANA

Notes on Data Quality.

Legend
  • E = Estimated
  • M = Missing
  • NA = Not Available
  • ‡ = Partner data that is not subject to review by the National Climate Archives